This demonstration page uses our WeatherBlox Daily Observations layout. Learn more.

Left ArrowRight Arrow

Hourly Observations for October 23, 2021

Temp ( °F °C ) Dew Point ( °F °C ) Humidity (%) Winds ( mph kmh ) Pressure ( in mb ) Visibility ( mi km ) Precip ( " mm )
12:53 am 00:53 Clear 43 6.1 35 1.7 74 74 E 12 19 29.91 1013 10 16 N/A
1:53 am 01:53 Clear 43 6.1 35 1.7 74 74 E 12 19 29.89 1012 10 16 N/A
2:53 am 02:53 Clear 42 5.6 35 1.7 76 76 ENE 9 15 29.88 1012 10 16 N/A
3:53 am 03:53 Clear 40 4.4 35 1.7 83 83 E 9 15 29.87 1012 10 16 N/A
4:53 am 04:53 Clear 40 4.4 35 1.7 83 83 ENE 12 19 29.86 1011 10 16 N/A
5:53 am 05:53 Clear 40 4.4 35 1.7 83 83 E 12 19 29.87 1011 10 16 N/A
6:53 am 06:53 Clear 39 3.9 35 1.7 86 86 ENE 8 13 29.89 1012 10 16 N/A
7:53 am 07:53 Clear 38 3.3 35 1.7 89 89 ENE 10 17 29.89 1012 10 16 N/A
8:53 am 08:53 Sunny 40 4.4 35 1.7 83 83 E 10 17 29.91 1013 10 16 N/A
9:53 am 09:53 Sunny 44 6.7 36 2.2 73 73 E 10 17 29.91 1013 10 16 N/A
10:53 am 10:53 Sunny 49 9.4 38 3.3 66 66 E 14 22 29.88 1012 10 16 N/A
11:15 am 11:15 Mostly Cloudy 50 10 38 3.3 63 63 E 15 24 29.87 1011 10 16 N/A
11:32 am 11:32 Mostly Sunny 51 10.6 39 3.9 64 64 E 16 26 29.86 1011 10 16 N/A
11:53 am 11:53 Sunny 54 12.2 40 4.4 59 59 E 17 28 29.85 1011 10 16 N/A
12:24 pm 12:24 Mostly Cloudy 55 12.8 41 5 59 59 E 10 17 29.82 1010 10 16 N/A
12:53 pm 12:53 Cloudy 56 13.3 42 5.6 60 60 ESE 13 20 29.83 1010 10 16 N/A
1:53 pm 13:53 Cloudy 57 13.9 43 6.1 60 60 ESE 10 17 29.82 1010 10 16 N/A
2:53 pm 14:53 Cloudy 57 13.9 43 6.1 60 60 E 12 19 29.79 1009 10 16 N/A
3:53 pm 15:53 Cloudy 57 13.9 43 6.1 60 60 E 14 22 29.78 1008 10 16 N/A
4:53 pm 16:53 Cloudy 57 13.9 43 6.1 60 60 E 10 17 29.77 1008 10 16 N/A
5:53 pm 17:53 Cloudy 57 13.9 42 5.6 58 58 E 10 17 29.76 1008 10 16 N/A
6:53 pm 18:53 Cloudy 56 13.3 44 6.7 65 65 E 13 20 29.76 1008 10 16 N/A
7:53 pm 19:53 Cloudy 56 13.3 45 7.2 67 67 E 10 17 29.75 1008 10 16 N/A
8:53 pm 20:53 Cloudy 55 12.8 47 8.3 74 74 ESE 9 15 29.74 1007 10 16 N/A
9:42 pm 21:42 Cloudy 54 12.2 48 8.9 80 80 E 14 22 29.71 1006 10 16 N/A
9:53 pm 21:53 Cloudy 54 12.2 47 8.3 77 77 E 12 19 29.72 1006 10 16 N/A
10:53 pm 22:53 Cloudy 54 12.2 47 8.3 77 77 E 13 20 29.71 1006 10 16 N/A
11:43 pm 23:43 Cloudy 54 12.2 48 8.9 80 80 E 15 24 29.69 1005 10 16 N/A
11:53 pm 23:53 Cloudy 53 11.7 48 8.9 83 83 E 15 24 29.69 1005 10 16 N/A

Powered by AerisWeather